When you browse on this site, cookies collect data to enhance your experience and personalize the content and advertising you see.
Visit our Privacy Policy to learn more. By continuing to use the site, you agree to this use of cookies and data.
  • In United Kingdom
  • List of Countries
  • For 7 days
  • Water Temperature
  • Satellite Maps
  • Weather Map
  • Weather Widgets
  • user-avatar
    Login

    Hourly Weather Debienko

    Today, 24 January, Thursday

    Time Temperature Precipitation Wind Pressure Humidity
    00:00 -8°C° 0 mm 3 mps 750 mmHg 78%
    01:00 -8°C° 0 mm 3 mps 750 mmHg 79%
    02:00 -8°C° 0 mm 3 mps 750 mmHg 80%
    03:00 -9°C° 0 mm 3 mps 750 mmHg 80%
    04:00 -9°C° 0 mm 3 mps 751 mmHg 81%
    05:00 -9°C° 0 mm 3 mps 751 mmHg 81%
    06:00 -9°C° 0 mm 3 mps 751 mmHg 81%
    07:00 -8°C° 0 mm 2 mps 751 mmHg 83%
    08:00 -9°C° 0 mm 3 mps 752 mmHg 79%
    09:00 -9°C° 0 mm 4 mps 752 mmHg 75%
    10:00 -8°C° 0 mm 4 mps 752 mmHg 72%
    11:00 -8°C° 0 mm 4 mps 752 mmHg 70%
    12:00 -8°C° 0 mm 4 mps 752 mmHg 68%
    13:00 -7°C° 0 mm 4 mps 752 mmHg 66%
    14:00 -7°C° 0 mm 4 mps 752 mmHg 68%
    15:00 -7°C° 0 mm 3 mps 752 mmHg 70%
    16:00 -7°C° 0 mm 3 mps 752 mmHg 71%
    17:00 -7°C° 0 mm 3 mps 752 mmHg 73%
    18:00 -8°C° 0 mm 3 mps 752 mmHg 74%
    19:00 -8°C° 0 mm 3 mps 753 mmHg 75%
    20:00 -8°C° 0 mm 3 mps 753 mmHg 76%
    21:00 -8°C° 0 mm 3 mps 753 mmHg 76%
    22:00 -8°C° 0 mm 3 mps 753 mmHg 77%
    23:00 -8°C° 0 mm 3 mps 753 mmHg 78%

    Tomorrow, 25 January, Friday

    Time Temperature Precipitation Wind Pressure Humidity
    00:00 -8°C° 0 mm 2 mps 753 mmHg 79%
    01:00 -8°C° 0 mm 2 mps 753 mmHg 80%
    02:00 -8°C° 0 mm 2 mps 753 mmHg 81%
    03:00 -8°C° 0 mm 2 mps 753 mmHg 82%
    04:00 -8°C° 0 mm 2 mps 753 mmHg 83%
    05:00 -8°C° 0 mm 2 mps 753 mmHg 83%
    06:00 -8°C° 0 mm 2 mps 753 mmHg 83%
    07:00 -7°C° 0 mm 1 mps 753 mmHg 84%
    08:00 -7°C° 0 mm 1 mps 753 mmHg 81%
    09:00 -6°C° 0 mm 1 mps 753 mmHg 79%
    10:00 -6°C° 0 mm 1 mps 754 mmHg 77%
    11:00 -4°C° 0 mm 1 mps 753 mmHg 75%
    12:00 -4°C° 0 mm 1 mps 753 mmHg 74%
    13:00 -5°C° 0 mm 2 mps 753 mmHg 72%
    14:00 -5°C° 0 mm 2 mps 753 mmHg 72%
    15:00 -5°C° 0 mm 2 mps 753 mmHg 72%
    16:00 -5°C° 0 mm 2 mps 753 mmHg 73%
    17:00 -6°C° 0 mm 2 mps 753 mmHg 73%
    18:00 -6°C° 0 mm 2 mps 753 mmHg 74%
    19:00 -4°C° 0 mm 1 mps 753 mmHg 75%
    20:00 -6°C° 0 mm 2 mps 752 mmHg 75%
    21:00 -6°C° 0 mm 2 mps 752 mmHg 75%
    22:00 -7°C° 0 mm 3 mps 752 mmHg 76%
    23:00 -7°C° 0 mm 3 mps 751 mmHg 75%

    Day after tomorrow, 26 January, Saturday

    Time Temperature Precipitation Wind Pressure Humidity
    00:00 -7°C° 0 mm 3 mps 750 mmHg 75%
    01:00 -6°C° 0 mm 3 mps 749 mmHg 74%
    02:00 -7°C° 0.2 mm 4 mps 748 mmHg 79%
    03:00 -7°C° 0.2 mm 4 mps 747 mmHg 84%
    04:00 -7°C° 0.2 mm 4 mps 746 mmHg 89%
    05:00 -6°C° 0.7 mm 5 mps 745 mmHg 91%
    06:00 -6°C° 0.7 mm 5 mps 744 mmHg 92%
    07:00 -5°C° 0.7 mm 5 mps 743 mmHg 94%
    08:00 -4°C° 0.3 mm 5 mps 743 mmHg 94%
    09:00 -2°C° 0.3 mm 5 mps 742 mmHg 94%
    10:00 -1°C° 0.3 mm 5 mps 742 mmHg 94%
    11:00 -1°C° 0 mm 5 mps 742 mmHg 94%
    12:00 0°C° 0 mm 5 mps 742 mmHg 94%
    13:00 0°C° 0 mm 5 mps 741 mmHg 94%
    14:00 0°C° 0 mm 4 mps 742 mmHg 94%
    15:00 -1°C° 0 mm 4 mps 742 mmHg 94%
    16:00 -1°C° 0 mm 4 mps 742 mmHg 94%
    17:00 -1°C° 0.2 mm 4 mps 743 mmHg 94%
    18:00 0°C° 0.2 mm 3 mps 743 mmHg 95%
    19:00 0°C° 0.2 mm 3 mps 743 mmHg 96%
    20:00 -1°C° 0 mm 2 mps 744 mmHg 96%
    21:00 -1°C° 0 mm 2 mps 744 mmHg 96%
    22:00 +1°C° 0 mm 1 mps 744 mmHg 96%
    23:00 0°C° 0 mm 1 mps 744 mmHg 95%

    27 January, Sunday

    Time Temperature Precipitation Wind Pressure Humidity
    00:00 -2°C° 0 mm 2 mps 743 mmHg 94%
    01:00 -2°C° 0 mm 2 mps 743 mmHg 94%
    02:00 -2°C° 0.2 mm 2 mps 743 mmHg 94%
    03:00 -2°C° 0.2 mm 3 mps 742 mmHg 94%
    04:00 -2°C° 0.2 mm 3 mps 742 mmHg 95%
    05:00 -3°C° 0.4 mm 4 mps 741 mmHg 95%
    06:00 -3°C° 0.4 mm 4 mps 741 mmHg 95%
    07:00 -2°C° 0.4 mm 5 mps 740 mmHg 95%
    08:00 -2°C° 0.5 mm 4 mps 740 mmHg 96%
    09:00 -2°C° 0.5 mm 4 mps 739 mmHg 97%
    10:00 -1°C° 0.5 mm 4 mps 739 mmHg 98%
    11:00 0°C° 0.2 mm 3 mps 739 mmHg 98%
    12:00 0°C° 0.2 mm 3 mps 738 mmHg 99%
    13:00 +2°C° 0.2 mm 2 mps 738 mmHg 99%
    14:00 +2°C° 0.1 mm 2 mps 738 mmHg 99%
    15:00 +2°C° 0.1 mm 2 mps 738 mmHg 98%
    16:00 +2°C° 0.1 mm 2 mps 737 mmHg 98%
    17:00 +2°C° 0.1 mm 2 mps 737 mmHg 97%
    18:00 0°C° 0.1 mm 3 mps 737 mmHg 97%
    19:00 0°C° 0.1 mm 3 mps 737 mmHg 96%
    20:00 0°C° 0.3 mm 3 mps 737 mmHg 96%
    21:00 +1°C° 0.3 mm 2 mps 737 mmHg 97%
    22:00 +1°C° 0.3 mm 2 mps 736 mmHg 97%
    23:00 +1°C° 0 mm 2 mps 736 mmHg 96%

    28 January, Monday

    Time Temperature Precipitation Wind Pressure Humidity
    00:00 +1°C° 0 mm 2 mps 736 mmHg 95%
    01:00 +1°C° 0 mm 2 mps 736 mmHg 94%
    02:00 +1°C° 0 mm 2 mps 736 mmHg 93%
    03:00 -1°C° 0 mm 2 mps 736 mmHg 93%
    04:00 -1°C° 0 mm 2 mps 735 mmHg 92%
    05:00 -1°C° 0 mm 2 mps 735 mmHg 92%
    06:00 -1°C° 0 mm 2 mps 735 mmHg 92%
    07:00 -1°C° 0 mm 2 mps 735 mmHg 92%
    08:00 +1°C° 0 mm 2 mps 736 mmHg 92%
    09:00 +1°C° 0 mm 2 mps 736 mmHg 93%
    10:00 +1°C° 0 mm 2 mps 736 mmHg 94%
    11:00 +2°C° 0 mm 2 mps 736 mmHg 95%
    12:00 +2°C° 0 mm 2 mps 736 mmHg 97%
    13:00 +2°C° 0 mm 2 mps 736 mmHg 98%
    14:00 +2°C° 0 mm 2 mps 736 mmHg 96%
    15:00 +2°C° 0 mm 2 mps 736 mmHg 95%
    16:00 +1°C° 0 mm 2 mps 736 mmHg 93%
    17:00 +1°C° 0 mm 2 mps 736 mmHg 93%
    18:00 +1°C° 0 mm 2 mps 736 mmHg 92%
    19:00 +1°C° 0 mm 2 mps 736 mmHg 92%
    20:00 0°C° 0 mm 3 mps 737 mmHg 93%
    21:00 0°C° 0 mm 3 mps 737 mmHg 94%
    22:00 0°C° 0 mm 3 mps 737 mmHg 95%
    23:00 -1°C° 0.2 mm 5 mps 738 mmHg 93%

    29 January, Tuesday

    Time Temperature Precipitation Wind Pressure Humidity
    00:00 -2°C° 0.2 mm 6 mps 739 mmHg 91%
    01:00 -2°C° 0.2 mm 8 mps 740 mmHg 89%
    02:00 -4°C° 0.1 mm 8 mps 741 mmHg 87%
    03:00 -4°C° 0.1 mm 8 mps 741 mmHg 85%
    04:00 -5°C° 0.1 mm 9 mps 742 mmHg 82%
    05:00 -5°C° 0 mm 8 mps 743 mmHg 82%
    06:00 -6°C° 0 mm 8 mps 744 mmHg 81%
    07:00 -6°C° 0 mm 8 mps 745 mmHg 81%
    08:00 -6°C° 0 mm 7 mps 746 mmHg 79%
    09:00 -6°C° 0 mm 7 mps 746 mmHg 78%
    10:00 -5°C° 0 mm 6 mps 747 mmHg 77%
    11:00 -4°C° 0 mm 6 mps 747 mmHg 77%
    12:00 -4°C° 0 mm 5 mps 747 mmHg 77%
    13:00 -4°C° 0 mm 5 mps 747 mmHg 77%
    14:00 -3°C° 0.1 mm 4 mps 748 mmHg 80%
    15:00 -2°C° 0.1 mm 3 mps 748 mmHg 84%
    16:00 -2°C° 0.1 mm 2 mps 748 mmHg 87%
    17:00 -2°C° 0 mm 3 mps 748 mmHg 87%
    18:00 -2°C° 0 mm 3 mps 748 mmHg 87%
    19:00 -4°C° 0 mm 3 mps 748 mmHg 87%
    20:00 -4°C° 0 mm 3 mps 748 mmHg 87%
    21:00 -4°C° 0 mm 3 mps 748 mmHg 86%
    22:00 -4°C° 0 mm 4 mps 748 mmHg 85%
    23:00 -4°C° 0 mm 4 mps 748 mmHg 85%
    Show more